Find Starlink 4277

NORAD ID: 53009 Int'l Des: 2022-076 Owner: SPXS Country: US Constellation: starlink operational
LEOCIRCULAR

实时位置

正在加载3D地球...

关于 Starlink 4277

正在加载描述...

即将过境

Passes for default location (London). Set your location on the main map for personalized predictions.

高度历史

Loading altitude history...

两行轨道根数

1 53009U 22076Z 26104.87210457 .00000686 00000-0 61156-4 0 9994
2 53009 53.2177 281.6909 0001273 91.8710 268.2428 15.08841055208445
Epoch: Apr 14, 2026 • Age: 12 hours

当前状态

高度 554.1 km
速度 7.58 km/s
星下点 -41.08°S, 159.85°E
发射日期 Jul 7, 2022
运行时间 3.7 years
类型 internet

技术详情

分类 Payload
质量 297.00 kg
干质量 275.00 kg
总质量 297.00 kg
长度 0.20 m
直径 2.80 m
跨度 9.00 m
形状 Box + pan
制造商 SPXS
平台类型 Starlink
阶段状态 In Orbit
所有者/国家 SPXS/US

Most Searched